Regional Weather Roundup
Issued by NWS Green Bay, WI

Home | Current Version | Previous Version | Text Only | Print | Product List | Glossary On
Versions: 1 2 3 4 5 6 7 8 9 10 11 12 13 14 15 16 17 18 19 20 21 22 23 24 25 26 27 28 29 30 31 32 33 34 35 36 37 38 39 40 41 42 43 44 45 46 47 48 49 50
000
ASUS43 KGRB 290911
RWRGRB

NORTH-CENTRAL AND NORTHEAST WISCONSIN REGIONAL WEATHER ROUNDUP
NATIONAL WEATHER SERVICE GREEN BAY WI
400 AM CDT FRI APR 29 2016

WIZ005-009-010>012-018-019-291000-
NORTH CENTRAL WISCONSIN

CITY           SKY/WX    TMP DP  RH WIND       PRES   REMARKS
IRONWOOD       CLOUDY    30  28  93 CALM      30.11R
MANITOWISH WTR CLOUDY    37  36  98 CALM      30.11R
ARBOR VITAE    CLOUDY    39  37  92 CALM      30.10S
EAGLE RIVER    LGT RAIN  37  33  82 CALM      30.11R
LAND O LAKES   CLOUDY    38  33  80 CALM      30.12R
RHINELANDER    CLOUDY    37  35  92 CALM      30.11R
PHILLIPS       CLOUDY    37  34  87 CALM      30.11R
ANTIGO         DRIZZLE   36  35  96 N3        30.10R
TOMAHAWK       CLOUDY    36  35  96 CALM      30.12R
MERRILL        CLOUDY    37  37 100 CALM      30.12R
$$

WIZ013-073-291000-
NORTHEAST WISCONSIN

CITY           SKY/WX    TMP DP  RH WIND       PRES   REMARKS
IRON MOUNTAIN  CLOUDY    39  26  59 N7        30.09S
MARINETTE      CLOUDY    43  27  52 NE6       30.10R
OCONTO         CLOUDY    40  34  78 N3        30.09S
$$

WIZ017-030-035>037-045-291000-
CENTRAL WISCONSIN

CITY           SKY/WX    TMP DP  RH WIND       PRES   REMARKS
MEDFORD        CLOUDY    36  36 100 CALM      30.11R
WAUSAU         CLOUDY    39  35  86 N3        30.09R
MOSINEE        CLOUDY    36  36 100 N5        30.11R
MARSHFIELD     CLOUDY    38  35  89 NE8       30.10R
WISC RAPIDS    CLOUDY    39  34  82 N8        30.12R
STEVENS POINT  CLOUDY    35  34  97 N5        30.10R
WAUPACA        MOCLDY    41  35  79 N6        30.08R
SHAWANO        CLOUDY    40  36  86 NE7       30.10S
CLINTONVILLE   CLOUDY    37  34  87 N8        30.08F
WAUTOMA        LGT RAIN  38  36  92 N6        30.09
$$

WIZ038-039-048-051-291000-
FOX VALLEY

CITY           SKY/WX    TMP DP  RH WIND       PRES   REMARKS
NWS GREEN BAY  LGT RAIN  42  35  76 NE9       30.08S
APPLETON       CLOUDY    39  32  75 NE6       30.05S
OSHKOSH        CLOUDY    42  33  70 NE6       30.05F
FOND DU LAC    LGT RAIN  40  37  89 CALM      30.06S
$$

WIZ022-050-052-291000-
EAST CENTRAL WISCONSIN

CITY           SKY/WX    TMP DP  RH WIND       PRES   REMARKS
EPHRAIM        CLOUDY    39  32  76 NE5       30.08S
STURGEON BAY   CLOUDY    39  30  70 N3        30.11R
MANITOWOC      LGT RAIN  41  34  76 MISG      30.08R
SHEBOYGAN      CLOUDY    40  34  79 NE3       30.06S
$$

LMZ563-521-522-541>543-291000-
LAKESHORE

STATION/POSITION TIME  TEMP    WIND        PRES    VSBY  WAVE
                       AIR SEA DIR/SP/G                  HT/PER
                 (UTC) (F)     (DEG/KT/KT) (MB)    (MI)  (FT/S)
SHEBOYGAN LKSHOR 0900   40      60/  4/  5 1018.9R
KEWAUNEE LKSHORE 0800   42     360/  6/  8 1017.5R
ALGOMA MARINA    0800          330/  6/  7   N/A
NORTHPORT PIER   0800   40      40/  6/  8 1019.0S
N MID LAKE BUOY  0850   39 38  100/  4/  4 1019.4R         1
CHAMBERS ISLAND  0800   41      10/ 10/ 12 1019.0S
MENOMINEE LKSHOR 0800   41      10/  5/  7 1017.7R
$$




USA.gov is the U.S. government's official web portal to all federal, state and local government web resources and services.